Hourly Data Report for May 15, 2022

FISHER BRANCH (AUT)
MANITOBA
Current Station Operator: ECCC - MSC

51°05'00.100" N
97°33'16.200" W
253.00 m
50309J6
71442
WSZ

Download Data

Hourly Data (May 2022)
Hourly Data Report for May 15, 2022
TIME
LST
Temp Definition
°C
Dew Point Definition
°C
Rel Hum Definition
%
Precip. Amount Definition
mm

Wind Dir Definition
10's deg

Wind Spd Definition
km/h
Visibility Definition
km
Stn Press Definition
kPa
Hmdx Definition


Wind Chill Definition


Weather Definition


00:00 7.1 4.5 83 0.0 23 10   97.69     LegendNANA
01:00 6.5 2.7 77 0.0 28 14   97.70     LegendNANA
02:00 6.0 2.3 77 0.0 28 10   97.71     LegendNANA
03:00 5.7 2.5 79 0.0 28 12   97.73     LegendNANA
04:00 5.3 2.6 82 0.0 28 10   97.77     LegendNANA
05:00 5.1 2.3 82 0.0 28 15   97.78     LegendNANA
06:00 5.1 1.5 78 0.0 29 16   97.82     LegendNANA
07:00 5.6 1.1 73 0.0 29 22   97.85     LegendNANA
08:00 6.3 1.2 70 0.0 30 25   97.85     LegendNANA
09:00 6.9 0.9 66 0.0 30 25   97.89     LegendNANA
10:00 6.7 1.6 70 0.0 31 19   97.92     LegendNANA
11:00 7.3 1.0 65 0.0 30 24   97.96     LegendNANA
12:00 7.4 0.7 62 0.0 29 30   97.99     LegendNANA
13:00 8.3 1.2 61 0.0 29 32   98.00     LegendNANA
14:00 8.8 0.9 58 0.0 30 26   98.01     LegendNANA
15:00 9.2 1.1 57 0.0 31 25   98.03     LegendNANA
16:00 9.5 0.6 54 0.0 31 26   98.05     LegendNANA
17:00 9.9 1.1 54 0.0 32 22   98.08     LegendNANA
18:00 9.7 1.6 57 0.0 32 22   98.12     LegendNANA
19:00 9.1 1.3 58 0.0 32 21   98.16     LegendNANA
20:00 8.5 1.6 62 0.0 33 15   98.20     LegendNANA
21:00 6.7 2.2 73 0.0 36 13   98.26     LegendNANA
22:00 6.1 2.2 76 0.0 36 9   98.28     LegendNANA
23:00 5.0 2.0 81 0.0 35 15   98.31     LegendNANA

Notes on Data Quality.

Legend

  • E = Estimated
  • M = Missing
  • NA = Not Available*
  • [empty] = Indicates an unobserved value
Date modified: